Simultaneous Nadir Overpasses (SNOs) Predictions

Prediction of SNOs between GOES-16 and METOP-C Satellite Orbit:

Table of predicted SNOs for the next 14.0 days since TLE Epoch: 1/17/2020
Index Date Time (GOES-16) GOES-16 Lat,Lon METOP-C Lat,Lon Distance(km) Time Diff (sec)
1 01/18/2020 02:38:35 -0.02, -75.19 -0.45, -77.16 224.82 80
2 01/19/2020 02:20:23 -0.02, -75.19 0.65, -72.11 350.24 80
3 01/20/2020 14:36:17 0.01, -75.21 0.32, -76.60 158.50 80
4 01/21/2020 14:18:05 0.02, -75.21 -0.77, -71.55 416.82 80
5 01/23/2020 02:34:10 -0.01, -75.21 -0.18, -76.08 99.35 80
6 01/24/2020 02:15:58 -0.02, -75.21 0.92, -71.04 476.46 80
7 01/25/2020 14:31:51 0.02, -75.24 0.06, -75.52 31.20 80
8 01/28/2020 02:32:23 -0.02, -75.27 0.04, -75.00 30.52 80
9 01/29/2020 14:48:17 0.01, -75.30 0.96, -79.48 476.11 80
10 01/30/2020 14:30:06 0.02, -75.32 -0.20, -74.44 100.83 80




NCC Satellite Simultaneous Nadir Overpasses (SNOs) Prediction Service
